TimeMST,TemperatureF,Dew PointF,Humidity,Sea Level PressureIn,VisibilityMPH,Wind Direction,Wind SpeedMPH,Gust SpeedMPH,PrecipitationIn,Events,Conditions,WindDirDegrees,DateUTC
12:17 AM,15.8,-7.6,35,30.18,-9999.0,North,-9999.0,-,N/A,,Clear,0,2013-01-05 07:17:00
12:37 AM,17.6,-9.4,30,30.18,-9999.0,North,-9999.0,-,N/A,,Clear,0,2013-01-05 07:37:00
12:57 AM,12.2,-5.8,45,30.18,-9999.0,North,-9999.0,-,N/A,,Clear,0,2013-01-05 07:57:00
1:17 AM,14.0,-5.8,41,30.19,-9999.0,North,-9999.0,-,N/A,,Clear,0,2013-01-05 08:17:00
1:37 AM,12.2,-7.6,41,30.20,-9999.0,North,-9999.0,-,N/A,,Clear,0,2013-01-05 08:37:00
1:56 AM,12.2,-7.6,41,30.20,-9999.0,North,-9999.0,-,N/A,,Clear,0,2013-01-05 08:56:00
2:17 AM,14.0,-9.4,35,30.20,-9999.0,North,-9999.0,-,N/A,,Clear,0,2013-01-05 09:17:00
2:37 AM,10.4,-4.0,52,30.20,-9999.0,North,-9999.0,-,N/A,,Clear,0,2013-01-05 09:37:00
2:57 AM,12.2,-5.8,45,30.21,-9999.0,North,-9999.0,-,N/A,,Clear,0,2013-01-05 09:57:00
3:17 AM,14.0,-9.4,35,30.21,-9999.0,North,-9999.0,-,N/A,,Clear,0,2013-01-05 10:17:00
3:37 AM,14.0,-9.4,35,30.21,-9999.0,North,-9999.0,-,N/A,,Clear,0,2013-01-05 10:37:00
3:57 AM,10.4,-7.6,44,30.21,-9999.0,North,-9999.0,-,N/A,,Clear,0,2013-01-05 10:57:00
4:17 AM,12.2,-7.6,41,30.22,-9999.0,North,-9999.0,-,N/A,,Clear,0,2013-01-05 11:17:00
4:37 AM,12.2,-7.6,41,30.22,-9999.0,North,-9999.0,-,N/A,,Clear,0,2013-01-05 11:37:00
4:57 AM,10.4,-5.8,48,30.22,-9999.0,North,-9999.0,-,N/A,,Clear,0,2013-01-05 11:57:00
5:17 AM,8.6,-5.8,52,30.22,-9999.0,North,-9999.0,-,N/A,,Clear,0,2013-01-05 12:17:00
5:37 AM,5.0,-4.0,66,30.22,-9999.0,North,-9999.0,-,N/A,,Clear,0,2013-01-05 12:37:00
6:17 AM,8.6,-4.0,57,30.24,-9999.0,North,-9999.0,-,N/A,,Clear,0,2013-01-05 13:17:00
6:37 AM,6.8,-4.0,61,30.24,-9999.0,North,-9999.0,-,N/A,,Clear,0,2013-01-05 13:37:00
6:57 AM,8.6,-4.0,57,30.25,-9999.0,North,-9999.0,-,N/A,,Clear,0,2013-01-05 13:57:00
7:17 AM,8.6,-5.8,52,30.26,-9999.0,North,-9999.0,-,N/A,,Clear,0,2013-01-05 14:17:00
7:37 AM,6.8,-5.8,56,30.27,-9999.0,North,-9999.0,-,N/A,,Clear,0,2013-01-05 14:37:00
7:57 AM,6.8,-5.8,56,30.27,-9999.0,North,-9999.0,-,N/A,,Clear,0,2013-01-05 14:57:00
8:17 AM,8.6,-5.8,52,30.29,-9999.0,North,-9999.0,-,N/A,,Clear,0,2013-01-05 15:17:00
8:57 AM,10.4,-7.6,44,30.30,-9999.0,North,-9999.0,-,N/A,,Clear,0,2013-01-05 15:57:00
9:16 AM,10.4,-5.8,48,30.30,-9999.0,North,-9999.0,-,N/A,,Clear,0,2013-01-05 16:16:00
9:56 AM,14.0,-5.8,41,30.32,-9999.0,North,-9999.0,-,N/A,,Clear,0,2013-01-05 16:56:00
10:17 AM,14.0,-5.8,41,30.34,-9999.0,North,-9999.0,-,N/A,,Clear,0,2013-01-05 17:17:00
10:56 AM,15.8,-4.0,41,30.33,-9999.0,WSW,28.8,38.0,N/A,,Clear,240,2013-01-05 17:56:00
11:16 AM,14.0,-4.0,45,30.32,-9999.0,WSW,29.9,-,N/A,,Clear,250,2013-01-05 18:16:00
11:37 AM,15.8,-2.2,45,30.32,-9999.0,WSW,31.1,38.0,N/A,,Clear,250,2013-01-05 18:37:00
11:56 AM,15.8,-4.0,41,30.30,-9999.0,WSW,33.4,38.0,N/A,,Clear,250,2013-01-05 18:56:00
12:16 PM,17.6,-4.0,38,30.31,-9999.0,WSW,32.2,39.1,N/A,,Clear,250,2013-01-05 19:16:00
12:36 PM,17.6,-2.2,42,30.30,-9999.0,WSW,34.5,40.3,N/A,,Clear,250,2013-01-05 19:36:00
12:56 PM,17.6,-2.2,42,30.31,-9999.0,West,31.1,35.7,N/A,,Clear,260,2013-01-05 19:56:00
1:17 PM,19.4,-2.2,39,30.32,-9999.0,West,27.6,39.1,N/A,,Clear,260,2013-01-05 20:17:00
1:36 PM,19.4,-0.4,42,30.31,-9999.0,WSW,31.1,34.5,N/A,,Clear,250,2013-01-05 20:36:00
1:56 PM,19.4,-2.2,39,30.32,-9999.0,West,28.8,-,N/A,,Clear,260,2013-01-05 20:56:00
2:16 PM,19.4,-0.4,42,30.33,-9999.0,WSW,25.3,-,N/A,,Clear,250,2013-01-05 21:16:00
2:36 PM,19.4,-0.4,42,30.34,-9999.0,WSW,24.2,-,N/A,,Clear,250,2013-01-05 21:36:00
2:56 PM,19.4,-0.4,42,30.35,-9999.0,WSW,26.5,-,N/A,,Clear,250,2013-01-05 21:56:00
3:16 PM,19.4,-0.4,42,30.35,-9999.0,SW,25.3,-,N/A,,Clear,230,2013-01-05 22:16:00
4:16 PM,19.4,-2.2,39,30.35,-9999.0,North,-9999.0,-,N/A,,Clear,0,2013-01-05 23:16:00
4:37 PM,17.6,-2.2,42,30.36,-9999.0,North,-9999.0,-,N/A,,Clear,0,2013-01-05 23:37:00
4:57 PM,17.6,-2.2,42,30.37,-9999.0,WSW,27.6,-,N/A,,Clear,240,2013-01-05 23:57:00
5:17 PM,15.8,-4.0,41,30.37,-9999.0,North,-9999.0,-,N/A,,Clear,0,2013-01-06 00:17:00
5:37 PM,14.0,-4.0,45,30.38,-9999.0,North,-9999.0,-,N/A,,Clear,0,2013-01-06 00:37:00
5:57 PM,14.0,-5.8,41,30.39,-9999.0,North,-9999.0,-,N/A,,Clear,0,2013-01-06 00:57:00
6:17 PM,14.0,-5.8,41,30.40,-9999.0,North,-9999.0,-,N/A,,Clear,0,2013-01-06 01:17:00
6:37 PM,15.8,-5.8,38,30.40,-9999.0,North,-9999.0,-,N/A,,Clear,0,2013-01-06 01:37:00
6:57 PM,17.6,-5.8,35,30.41,-9999.0,North,-9999.0,-,N/A,,Clear,0,2013-01-06 01:57:00
7:17 PM,19.4,-5.8,33,30.42,-9999.0,North,-9999.0,-,N/A,,Clear,0,2013-01-06 02:17:00
7:37 PM,21.2,-5.8,30,30.42,-9999.0,NW,11.5,-,N/A,,Clear,320,2013-01-06 02:37:00
7:57 PM,21.2,-5.8,30,30.42,-9999.0,North,-9999.0,-,N/A,,Clear,0,2013-01-06 02:57:00
8:17 PM,19.4,-5.8,33,30.42,-9999.0,North,-9999.0,-,N/A,,Clear,0,2013-01-06 03:17:00
8:37 PM,21.2,-5.8,30,30.43,-9999.0,WNW,5.8,-,N/A,,Clear,300,2013-01-06 03:37:00
8:57 PM,19.4,-7.6,30,30.43,-9999.0,North,-9999.0,-,N/A,,Clear,0,2013-01-06 03:57:00
9:17 PM,17.6,-5.8,35,30.43,-9999.0,North,-9999.0,-,N/A,,Clear,0,2013-01-06 04:17:00
9:37 PM,19.4,-5.8,33,30.43,-9999.0,North,-9999.0,-,N/A,,Clear,0,2013-01-06 04:37:00
9:57 PM,19.4,-7.6,30,30.44,-9999.0,WSW,11.5,-,N/A,,Clear,250,2013-01-06 04:57:00
10:17 PM,19.4,-5.8,33,30.44,-9999.0,North,-9999.0,-,N/A,,Clear,0,2013-01-06 05:17:00
10:37 PM,17.6,-7.6,32,30.44,-9999.0,SW,9.2,-,N/A,,Clear,230,2013-01-06 05:37:00
10:57 PM,17.6,-7.6,32,30.44,-9999.0,WSW,9.2,-,N/A,,Clear,240,2013-01-06 05:57:00
11:17 PM,17.6,-7.6,32,30.44,-9999.0,WSW,12.7,-,N/A,,Clear,240,2013-01-06 06:17:00
11:37 PM,17.6,-7.6,32,30.44,-9999.0,North,-9999.0,-,N/A,,Clear,0,2013-01-06 06:37:00
11:57 PM,17.6,-7.6,32,30.44,-9999.0,North,-9999.0,-,N/A,,Clear,0,2013-01-06 06:57:00